Location: Nitra
(0.0000°N, 18.0833°E)
Time: 20:28:22
(UTC+02:00)

JUGNU - Visible Passes

Search period start: 12 October 2024 00:00
Search period end: 22 October 2024 00:00
Orbit: 834 x 861 km, 20.0° (Epoch: 11 October)

Date Brightness Start Highest point End Pass type
(mag) Time Alt. Az. Time Alt. Az. Time Alt. Az.
12 Oct ? 04:14:41 41° ENE 04:14:41 41° ENE 04:18:26 10° ENE visible
12 Oct ? 05:56:30 11° W 06:01:31 33° NNW 06:06:49 10° NE visible
12 Oct ? 20:36:13 10° SSW 20:37:55 11° S 20:39:13 10° S visible
13 Oct ? 04:00:08 25° ENE 04:00:08 25° ENE 04:02:31 10° ENE visible
13 Oct ? 05:41:57 17° WNW 05:45:37 30° NNW 05:50:47 10° NE visible
13 Oct ? 20:20:51 10° SSW 20:22:08 11° S 20:23:25 10° S visible
14 Oct ? 03:45:34 15° ENE 03:45:34 15° ENE 03:46:35 10° ENE visible
14 Oct ? 05:27:22 21° NW 05:29:44 28° NNW 05:34:44 10° NE visible
14 Oct ? 20:05:35 10° SSW 20:06:20 10° S 20:07:04 10° S visible
15 Oct ? 05:12:46 24° NW 05:13:51 25° NNW 05:18:41 10° NE visible
16 Oct ? 04:58:07 23° NNW 04:58:07 23° NNW 05:02:37 10° NE visible
17 Oct ? 04:43:25 20° N 04:43:25 20° N 04:46:32 10° NNE visible
17 Oct ? 21:06:43 10° SSW 21:06:54 10° SSW 21:06:54 10° SSW visible
18 Oct ? 04:28:41 16° NNE 04:28:41 16° NNE 04:30:27 10° NNE visible
18 Oct ? 20:50:35 10° SSW 20:52:00 12° S 20:52:00 12° S visible
19 Oct ? 04:13:56 11° NNE 04:13:56 11° NNE 04:14:20 10° NNE visible
19 Oct ? 05:59:10 10° NNW 06:00:14 10° N 06:01:18 10° N visible
19 Oct ? 20:34:27 10° SSW 20:37:06 14° S 20:37:06 14° S visible
20 Oct ? 05:43:50 10° N 05:44:26 10° N 05:45:01 10° N visible
20 Oct ? 20:18:21 10° SSW 20:21:33 15° SSE 20:22:12 15° SSE visible
21 Oct ? 20:02:14 10° SSW 20:05:42 16° SSE 20:07:17 14° SSE visible
